Year,Month,Day,Hour,Minute,Value (Times are PST for temperature in C)
2014,12,11,10,21,9.20
2014,12,11,10,22,9.20
2014,12,11,10,23,9.20
2014,12,11,10,24,9.20
2014,12,11,10,25,9.20
2014,12,11,10,26,9.20
2014,12,11,10,27,9.20
2014,12,11,10,28,9.20
2014,12,11,10,29,9.20
2014,12,11,10,30,9.30
2014,12,11,10,31,9.30
2014,12,11,10,32,9.30
2014,12,11,10,33,9.30
2014,12,11,10,34,9.30
2014,12,11,10,35,9.20
2014,12,11,10,36,9.20
2014,12,11,10,37,9.20
2014,12,11,10,38,9.20
2014,12,11,10,39,9.20
2014,12,11,10,40,9.20
2014,12,11,10,41,9.20
2014,12,11,10,42,9.10
2014,12,11,10,43,9.10
2014,12,11,10,44,9.10
2014,12,11,10,45,9.10
2014,12,11,10,46,9.00
2014,12,11,10,47,9.00
2014,12,11,10,48,9.00
2014,12,11,10,49,8.90
2014,12,11,10,50,8.90
2014,12,11,10,51,8.90
2014,12,11,10,52,8.90
2014,12,11,10,53,8.90
2014,12,11,10,54,8.80
2014,12,11,10,55,8.80
2014,12,11,10,56,8.80
2014,12,11,10,57,8.80
2014,12,11,10,58,8.80
2014,12,11,10,59,8.80
2014,12,11,11,00,8.80
2014,12,11,11,01,8.80
2014,12,11,11,02,8.80
2014,12,11,11,03,8.80
2014,12,11,11,04,8.80
2014,12,11,11,05,8.80
2014,12,11,11,06,8.80
2014,12,11,11,07,8.70
2014,12,11,11,08,8.70
2014,12,11,11,09,8.70
2014,12,11,11,10,8.70
2014,12,11,11,11,8.60
2014,12,11,11,12,8.60
2014,12,11,11,13,8.60
2014,12,11,11,14,8.60
2014,12,11,11,15,8.60
2014,12,11,11,16,8.50
2014,12,11,11,17,8.50
2014,12,11,11,18,8.50
2014,12,11,11,19,8.50
2014,12,11,11,20,8.40
2014,12,11,11,21,8.40
2014,12,11,11,22,8.40
2014,12,11,11,23,8.40
2014,12,11,11,24,8.40
2014,12,11,11,25,8.40
2014,12,11,11,26,8.40
2014,12,11,11,27,8.40
2014,12,11,11,28,8.40
2014,12,11,11,29,8.40
2014,12,11,11,30,8.40
2014,12,11,11,31,8.40
2014,12,11,11,32,8.30
2014,12,11,11,33,8.30
2014,12,11,11,34,8.30
2014,12,11,11,35,8.30
2014,12,11,11,36,8.30
2014,12,11,11,37,8.30
2014,12,11,11,38,8.30
2014,12,11,11,39,8.30
2014,12,11,11,40,8.30
2014,12,11,11,41,8.30
2014,12,11,11,42,8.30
2014,12,11,11,43,8.30
2014,12,11,11,44,8.30
2014,12,11,11,45,8.20
2014,12,11,11,46,8.30
2014,12,11,11,47,8.20
2014,12,11,11,48,8.20
2014,12,11,11,49,8.20
2014,12,11,11,50,8.20
2014,12,11,11,51,8.20
2014,12,11,11,52,8.20
2014,12,11,11,53,8.20
2014,12,11,11,54,8.30
2014,12,11,11,55,8.30
2014,12,11,11,56,8.30
2014,12,11,11,57,8.30
2014,12,11,11,58,8.30
2014,12,11,11,59,8.30
2014,12,11,12,00,8.30
2014,12,11,12,01,8.30
2014,12,11,12,02,8.30
2014,12,11,12,03,8.30
2014,12,11,12,04,8.30
2014,12,11,12,05,8.30
2014,12,11,12,06,8.30
2014,12,11,12,07,8.30
2014,12,11,12,08,8.30
2014,12,11,12,09,8.30
2014,12,11,12,10,8.30
2014,12,11,12,11,8.30
2014,12,11,12,12,8.30
2014,12,11,12,13,8.30
2014,12,11,12,14,8.30
2014,12,11,12,15,8.30
2014,12,11,12,16,8.30
2014,12,11,12,17,8.30
2014,12,11,12,18,8.30
2014,12,11,12,19,8.30
2014,12,11,12,20,8.30
2014,12,11,12,21,8.40
2014,12,11,12,22,8.40
2014,12,11,12,23,8.40
2014,12,11,12,24,8.40
2014,12,11,12,25,8.50
2014,12,11,12,26,8.50
2014,12,11,12,27,8.50
2014,12,11,12,28,8.50
2014,12,11,12,29,8.60
2014,12,11,12,30,8.60
2014,12,11,12,31,8.60
2014,12,11,12,32,8.60
2014,12,11,12,33,8.60
2014,12,11,12,34,8.60
2014,12,11,12,35,8.60
2014,12,11,12,36,8.70
2014,12,11,12,37,8.70
2014,12,11,12,38,8.70
2014,12,11,12,39,8.70
2014,12,11,12,40,8.80
2014,12,11,12,41,8.80
2014,12,11,12,42,8.80
2014,12,11,12,43,8.80
2014,12,11,12,44,8.80
2014,12,11,12,45,8.80
2014,12,11,12,46,8.80
2014,12,11,12,47,8.80
2014,12,11,12,48,8.80
2014,12,11,12,49,8.80
2014,12,11,12,50,8.80
2014,12,11,12,51,8.70
2014,12,11,12,52,8.70
2014,12,11,12,53,8.70
2014,12,11,12,54,8.70
2014,12,11,12,55,8.70
2014,12,11,12,56,8.70
2014,12,11,12,57,8.80
2014,12,11,12,58,8.80
2014,12,11,12,59,8.80
2014,12,11,13,00,8.80
2014,12,11,13,01,8.80
2014,12,11,13,02,8.80
2014,12,11,13,03,8.80
2014,12,11,13,04,8.80
2014,12,11,13,05,8.80
2014,12,11,13,06,8.80
2014,12,11,13,07,8.80
2014,12,11,13,08,8.80
2014,12,11,13,09,8.80
2014,12,11,13,10,8.80
2014,12,11,13,11,8.80
2014,12,11,13,12,8.90
2014,12,11,13,13,8.90
2014,12,11,13,14,8.90
2014,12,11,13,15,8.90
2014,12,11,13,16,8.90
2014,12,11,13,17,8.90
2014,12,11,13,18,8.90
2014,12,11,13,19,8.90
2014,12,11,13,20,8.90
2014,12,11,13,21,8.90
2014,12,11,13,22,8.90
2014,12,11,13,23,8.90
2014,12,11,13,24,8.90
2014,12,11,13,25,8.90
2014,12,11,13,26,8.80
2014,12,11,13,27,8.80
2014,12,11,13,28,8.80
2014,12,11,13,29,8.80
2014,12,11,13,30,8.80
2014,12,11,13,31,8.80
2014,12,11,13,32,8.80
2014,12,11,13,33,8.80
2014,12,11,13,34,8.80
2014,12,11,13,35,8.90
2014,12,11,13,36,8.80
2014,12,11,13,37,8.90
2014,12,11,13,38,8.90
2014,12,11,13,39,8.90
2014,12,11,13,40,8.90
2014,12,11,13,41,8.90
2014,12,11,13,42,8.90
2014,12,11,13,43,8.90
2014,12,11,13,44,8.90
2014,12,11,13,45,8.90
2014,12,11,13,46,8.90
2014,12,11,13,47,8.90
2014,12,11,13,48,8.90
2014,12,11,13,49,8.90
2014,12,11,13,50,8.90
2014,12,11,13,51,8.90
2014,12,11,13,52,8.90
2014,12,11,13,53,8.90
2014,12,11,13,54,8.90
2014,12,11,13,55,8.90
2014,12,11,13,56,8.90
2014,12,11,13,57,8.90
2014,12,11,13,58,8.90
2014,12,11,13,59,8.90
2014,12,11,14,00,8.90
2014,12,11,14,01,9.00
2014,12,11,14,02,9.00
2014,12,11,14,03,9.00
2014,12,11,14,04,9.10
2014,12,11,14,05,9.10
2014,12,11,14,06,9.10
2014,12,11,14,07,9.10
2014,12,11,14,08,9.10
2014,12,11,14,09,9.10
2014,12,11,14,10,9.10
2014,12,11,14,11,9.10
2014,12,11,14,12,9.10
2014,12,11,14,13,9.10
2014,12,11,14,14,9.10
2014,12,11,14,15,9.10
2014,12,11,14,16,9.00
2014,12,11,14,17,9.00
2014,12,11,14,18,9.00
2014,12,11,14,19,9.00
2014,12,11,14,20,9.00
2014,12,11,14,21,9.00
2014,12,11,14,22,9.00
2014,12,11,14,23,9.00
2014,12,11,14,24,9.00
2014,12,11,14,25,9.00
2014,12,11,14,26,9.00
2014,12,11,14,27,9.10
2014,12,11,14,28,9.10
2014,12,11,14,29,9.10
2014,12,11,14,30,9.20
2014,12,11,14,31,9.20
2014,12,11,14,32,9.20
2014,12,11,14,33,9.20
2014,12,11,14,34,9.20
2014,12,11,14,35,9.20
2014,12,11,14,36,9.20
2014,12,11,14,37,9.20
2014,12,11,14,38,9.20
2014,12,11,14,39,9.20
2014,12,11,14,40,9.20
2014,12,11,14,41,9.20
2014,12,11,14,42,9.20
2014,12,11,14,43,9.20
2014,12,11,14,44,9.20
2014,12,11,14,45,9.10
2014,12,11,14,46,9.10
2014,12,11,14,47,9.10
2014,12,11,14,48,9.10
2014,12,11,14,49,9.10
2014,12,11,14,50,9.10
2014,12,11,14,51,9.10
2014,12,11,14,52,9.10
2014,12,11,14,53,9.10
2014,12,11,14,54,9.00
2014,12,11,14,55,9.00
2014,12,11,14,56,9.00
2014,12,11,14,57,9.00
2014,12,11,14,58,9.00
2014,12,11,14,59,9.10
2014,12,11,15,00,9.10
2014,12,11,15,01,9.10
2014,12,11,15,02,9.10
2014,12,11,15,03,9.10
2014,12,11,15,04,9.10
2014,12,11,15,05,9.10
2014,12,11,15,06,9.10
2014,12,11,15,07,9.10
2014,12,11,15,08,9.10
2014,12,11,15,09,9.10
2014,12,11,15,10,9.10
2014,12,11,15,11,9.10
2014,12,11,15,12,9.10
2014,12,11,15,13,9.10
2014,12,11,15,14,9.10
2014,12,11,15,15,9.10
2014,12,11,15,16,9.10
2014,12,11,15,17,9.10
2014,12,11,15,18,9.20
2014,12,11,15,19,9.20
2014,12,11,15,20,9.20
2014,12,11,15,21,9.20
2014,12,11,15,22,9.20
2014,12,11,15,23,9.20
2014,12,11,15,24,9.20
2014,12,11,15,25,9.20
2014,12,11,15,26,9.20
2014,12,11,15,27,9.20
2014,12,11,15,28,9.20
2014,12,11,15,29,9.20
2014,12,11,15,30,9.20
2014,12,11,15,31,9.20
2014,12,11,15,32,9.20
2014,12,11,15,33,9.20
2014,12,11,15,34,9.20
2014,12,11,15,35,9.30
2014,12,11,15,36,9.30
2014,12,11,15,37,9.30
2014,12,11,15,38,9.30
2014,12,11,15,39,9.30
2014,12,11,15,40,9.30
2014,12,11,15,41,9.30
2014,12,11,15,42,9.30
2014,12,11,15,43,9.30
2014,12,11,15,44,9.30
2014,12,11,15,45,9.30
2014,12,11,15,46,9.30
2014,12,11,15,47,9.30
2014,12,11,15,48,9.30
2014,12,11,15,49,9.30
2014,12,11,15,50,9.30
2014,12,11,15,51,9.30
2014,12,11,15,52,9.30
2014,12,11,15,53,9.30
2014,12,11,15,54,9.30
2014,12,11,15,55,9.30
2014,12,11,15,56,9.30
2014,12,11,15,57,9.30
2014,12,11,15,58,9.30
2014,12,11,15,59,9.30
2014,12,11,16,00,9.20
2014,12,11,16,01,9.20
2014,12,11,16,02,9.20
2014,12,11,16,03,9.20
2014,12,11,16,04,9.20
2014,12,11,16,05,9.20
2014,12,11,16,06,9.20
2014,12,11,16,07,9.20
2014,12,11,16,08,9.20
2014,12,11,16,09,9.20
2014,12,11,16,10,9.10
2014,12,11,16,11,9.10
2014,12,11,16,12,9.10
2014,12,11,16,13,9.10
2014,12,11,16,14,9.10
2014,12,11,16,15,9.10
2014,12,11,16,16,9.10
2014,12,11,16,17,9.10
2014,12,11,16,18,9.10
2014,12,11,16,19,9.10
2014,12,11,16,20,9.10
2014,12,11,16,21,9.10
2014,12,11,16,22,9.10
2014,12,11,16,23,9.10
2014,12,11,16,24,9.10
2014,12,11,16,25,9.10
2014,12,11,16,26,9.10
2014,12,11,16,27,9.10
2014,12,11,16,28,9.10
2014,12,11,16,29,9.10
2014,12,11,16,30,9.10
2014,12,11,16,31,9.10
2014,12,11,16,32,9.10
2014,12,11,16,33,9.10
2014,12,11,16,34,9.10
2014,12,11,16,35,9.10
2014,12,11,16,36,9.10
2014,12,11,16,37,9.10
2014,12,11,16,38,9.10
2014,12,11,16,39,9.10
2014,12,11,16,40,9.00
2014,12,11,16,41,9.00
2014,12,11,16,42,9.00
2014,12,11,16,43,9.00
2014,12,11,16,44,9.00
2014,12,11,16,45,8.90
2014,12,11,16,46,8.90
2014,12,11,16,47,8.90
2014,12,11,16,48,8.90
2014,12,11,16,49,8.90
2014,12,11,16,50,8.90
2014,12,11,16,51,8.90
2014,12,11,16,52,8.90
2014,12,11,16,53,8.90
2014,12,11,16,54,8.90
2014,12,11,16,55,8.90
2014,12,11,16,56,8.90
2014,12,11,16,57,8.90
2014,12,11,16,58,9.00
2014,12,11,16,59,9.00
2014,12,11,17,00,9.00
2014,12,11,17,01,9.00
2014,12,11,17,02,9.00
2014,12,11,17,03,9.00
2014,12,11,17,04,9.00
2014,12,11,17,05,9.00
2014,12,11,17,06,9.00
2014,12,11,17,07,9.10
2014,12,11,17,08,9.10
2014,12,11,17,09,9.10
2014,12,11,17,10,9.10
2014,12,11,17,11,9.10
2014,12,11,17,12,9.10
2014,12,11,17,13,9.10
2014,12,11,17,14,9.10
2014,12,11,17,15,9.10
2014,12,11,17,16,9.10
2014,12,11,17,17,9.10
2014,12,11,17,18,9.10
2014,12,11,17,19,9.10
2014,12,11,17,20,9.10
2014,12,11,17,21,9.10
2014,12,11,17,22,9.10
2014,12,11,17,23,9.00
2014,12,11,17,24,9.00
2014,12,11,17,25,9.00
2014,12,11,17,26,9.00
2014,12,11,17,27,9.00
2014,12,11,17,28,9.00
2014,12,11,17,29,9.10
2014,12,11,17,30,9.10
2014,12,11,17,31,9.10
2014,12,11,17,32,9.10
2014,12,11,17,33,9.10
2014,12,11,17,34,9.10
2014,12,11,17,35,9.10
2014,12,11,17,36,9.10
2014,12,11,17,37,9.10
2014,12,11,17,38,9.10
2014,12,11,17,39,9.10
2014,12,11,17,40,9.10
2014,12,11,17,41,9.10
2014,12,11,17,42,9.10
2014,12,11,17,43,9.10
2014,12,11,17,44,9.10
2014,12,11,17,45,9.20
2014,12,11,17,46,9.20
2014,12,11,17,47,9.20
2014,12,11,17,48,9.20
2014,12,11,17,49,9.20
2014,12,11,17,50,9.20
2014,12,11,17,51,9.20
2014,12,11,17,52,9.20
2014,12,11,17,53,9.20
2014,12,11,17,54,9.20
2014,12,11,17,55,9.20
2014,12,11,17,56,9.20
2014,12,11,17,57,9.20
2014,12,11,17,58,9.20
2014,12,11,17,59,9.20
